COSMOS 1823 DEB, 18803

Orbit data source: Space-Track

COSMOS 1823 DEB, 18803 is space debris in LEO originally from a launch on Fri, 20 Feb 1987 UTC launched from the Plesetsk Missile And Space Complex (PKMTR). Debris objects in space refer to the collection of defunct objects orbiting the Earth. Examples of debris include non-operational satellites, rocket bodies, and fragments generated from explosions, collisions, or faulty payload assembly.

Loading next visibility...
Identifier
18803, 1987-020AP
Orbit
LEO
Country
Flag of CISCIS
Related business
Manufacturer
Unknown
Mission
Spacecraft
Bus & Motor
Unknown
Mass
Unknown
Launch date (UTC)
1987-02-20 (39 years ago)
Launch vehicle
Unknown
Launch site
Plesetsk Missile And Space Complex (PKMTR)
Object type
Payload
Rocket body
Debris
Shape & HBR
Unknown shape, 0.1 m
Radar Cross Section
Medium (>0.1 m² and <1 m²)

Expand to show TLE details & history
Last TLE update: 3 days ago

TLE from 3 days ago
0 COSMOS 1823 DEB
1 18803U 87020AP  26171.11258260  .00000015  00000-0  26007-3 0  9993
2 18803  73.4473 211.0850 0083789 117.9765 272.3755 12.32026180730699
Epoch: 2026-06-20T02:42Z
TLE epoch observation values (Epoch: 2026-06-20T02:42:07.136Z)
Latitude
28.10862°
Longitude
-88.68681°
Altitude
1,541.32 km
Speed
7.099 km/s
True Right ascension
14h 40m 41s
True Declination
27° 58' 48"
Sunlit
Object was in daylight at epoch
Visualization orbit readout
Latitude
Unknown
Longitude
Unknown
Altitude
Unknown
Speed
Unknown
Apparent Right ascension
Unknown
Apparent Declination
Unknown
Sunlit
N/A
Visualization observer readout
Local Sidereal Time
03:28:49
Azimuth
Unknown
Elevation
Unknown
Doppler factor
Unknown
Orbital elements
Apogee altitude
1,604.821 km
Perigee altitude
1,472.156 km
Semi-major axis
7,916.626 km
Eccentricity
0.00838
Inclination
73.4473°
RAAN
211.085°
Arg. of periapsis
117.9765°
True anomaly
271.4158°
Mean anomaly
272.3755°
Eccentric anomaly
271.89569°
Mean motion
3.08129 °/min
Orbital period
116.83 mins
BSTAR
0.00026007
Loading maneuver chart data...
Computing Atmospheric mass density...

Documentation

Showing up to 5 results
|